Retour au catalogue

COSMOS 1691 DEB

ActifPO
NORAD 43317·DEBRIS·🇷🇺 Russia

Lancé Oct 9, 1985 depuis Plesetsk Cosmodrome

Loading…

Prochains Passages (prochaines 24 heures)

TLE

VieillissantSource: Space-Track

Époque: Sep 5, 2026, 13:21 UTC

1 43317U 85094AB  26248.55631603  .00000208  00000-0  90507-3 0  9999
2 43317  82.5592 357.5807 0022189 156.0169 204.1969 12.76892067595510

Suivez COSMOS 1691 DEB en temps réel avec AllMySat

Download on the App Store